Tracking 23762 objects as of 19-Oct-2021
HD Live streaming from Space Station
objects crossing your sky now

COSMOS 2392 DEB

Track COSMOS 2392 DEB now!
10-day predictions


NORAD ID: 27494
Int'l Code: 2002-037H
Perigee: 1,245.0 km
Apogee: 2,036.5 km
Inclination: 63.4 °
Period: 118.9 minutes
Semi major axis: 8011 km
RCS: 0.7736 m2 (medium)
Launch date: July 25, 2002
Source: Commonwealth of Independent States (former USSR) (CIS)
Launch site: TYURATAM MISSILE AND SPACE COMPLEX (TTMTR)

Note: This is SATELLITE DEBRIS
aabbcc
Your satellite tracking list
Your tracking list is empty




NASA's NSSDC Master Catalog

Two Line Element Set (TLE):
1 27494U 02037H   21291.91544406  .00000265  00000-0  24437-2 0  9991
2 27494  63.4479 151.0064 0494013 332.0049 113.8119 12.10629419847851
Source of the keplerian elements: AFSPC